[[{"header":{"parameterUnit":"m.s-1","parameterCategory":1,"la1":30.2991,"la2":30.254,"lo1":-89.0895,"lo2":-89.0444,"dy":0.0017,"dx":0.0017,"nx":28,"ny":28,"refTime":"2025-05-22T21:00:00:Z","depth":0,"parameterNumber":2,"parameterNumberName":"U-component_of_WINDS"},"data":[0,0,0,0,0,0,0,0,0,0,0,0,0,0,0,0,0,0,0,0,0,0,0,0,0,0,0,0,0,0,0,0,0,0,0,0,0,0,0,0,0,0,0,0,0,0,0,0,0,0,0,0,0,0,0,0,0,0,-0.1829,-0.1828,0,-0.1738,-0.1737,-0.1736,-0.1694,-0.1694,-0.1694,-0.1695,-0.16,-0.1597,-0.1595,0,0,0,0,0,0,0,0,0,0,0,0,0,-0.1967,-0.1965,-0.1829,-0.1828,-0.1827,-0.1738,-0.1737,-0.1735,-0.1694,-0.1694,-0.1694,-0.1695,-0.1601,-0.1598,-0.1594,0,0,0,0,0,0,0,0,0,0,0,0,0,-0.1894,-0.1964,-0.1829,-0.1796,-0.1792,-0.1738,-0.1737,-0.1735,-0.1694,-0.1694,-0.1694,-0.1695,-0.1602,-0.1598,-0.1594,-0.1567,0,0,-0.1582,-0.158,0,0,0,0,0,0,0,0,-0.1899,-0.1889,-0.1802,-0.1798,-0.1793,-0.1728,-0.175,-0.1679,-0.1694,-0.1731,-0.1695,-0.1695,-0.1642,-0.1635,-0.1617,-0.1562,-0.1558,-0.1582,-0.1579,-0.1578,-0.1576,0,0,0,0,0,0,0,-0.1904,-0.1893,-0.1793,-0.1801,-0.1795,-0.1785,-0.1775,-0.1737,-0.1687,-0.1728,-0.1725,-0.1715,-0.164,-0.1621,-0.1615,-0.1557,-0.1582,-0.1578,-0.1576,-0.1574,-0.1475,-0.1475,0,0,0,0,0,0,-0.1914,-0.1898,-0.1796,-0.179,-0.1847,-0.1782,-0.1771,-0.1749,-0.1687,-0.1678,-0.1715,-0.1713,-0.1628,-0.1619,-0.1611,-0.1575,-0.1578,-0.1574,-0.1572,-0.1475,-0.1475,-0.1475,0,0,0,0,0,0,-0.1918,-0.1906,-0.18,-0.1843,-0.1829,-0.178,-0.1755,-0.1747,-0.1728,-0.1677,-0.1668,-0.1705,-0.1628,-0.1617,-0.1578,-0.1572,-0.1572,-0.1569,-0.1476,-0.1475,-0.1475,-0.1504,0,0,0,0,0,0,-0.1922,-0.1907,-0.1896,-0.1843,-0.1827,-0.1768,-0.1755,-0.1745,-0.1722,-0.1719,-0.1665,-0.1657,-0.1627,-0.1584,-0.1574,-0.1566,-0.1566,-0.1476,-0.1476,-0.1475,-0.1503,-0.1504,-0.1505,0,0,0,0,0,-0.1927,-0.1908,-0.1896,-0.1884,-0.1812,-0.1768,-0.1759,-0.1725,-0.1721,-0.171,-0.1677,-0.1658,-0.1574,-0.1581,-0.1569,-0.156,-0.1476,-0.1476,-0.1475,-0.1503,-0.1504,-0.1505,0,0,0,0,0,0,-0.1961,-0.19,-0.1887,-0.185,-0.1815,-0.1761,-0.1746,-0.1728,-0.1692,-0.1691,-0.165,-0.1639,-0.1604,-0.1578,-0.1586,-0.153,-0.1524,-0.1521,-0.1548,-0.1549,-0.155,-0.1557,-0.1562,0,0,0,0,0,-0.1965,-0.1934,-0.1882,-0.1855,-0.1838,-0.1795,-0.1775,-0.1752,-0.1714,-0.1698,-0.1663,-0.1626,-0.1591,-0.1569,-0.1534,-0.1499,-0.1487,-0.1487,-0.1488,-0.1489,-0.1487,-0.1467,-0.1466,-0.1473,-0.1473,-0.1473,0,0,-0.1971,-0.1934,-0.1917,-0.1861,-0.1831,-0.18,-0.1783,-0.1751,-0.1727,-0.1693,-0.1655,-0.1628,-0.1584,-0.1547,-0.1529,-0.1524,-0.1483,-0.1489,-0.149,-0.1487,-0.1466,-0.1466,-0.1465,-0.1472,-0.1472,-0.1472,0,0,-0.1967,-0.1937,-0.191,-0.1881,-0.1836,-0.1807,-0.1801,-0.175,-0.1731,-0.1692,-0.1666,-0.1637,-0.1578,-0.1548,-0.1525,-0.1511,-0.1492,-0.15,-0.1506,-0.1487,-0.1486,-0.1485,-0.148,-0.1479,-0.1498,-0.1498,-0.1498,0,-0.1981,-0.1934,-0.1899,-0.1869,-0.1845,-0.1813,-0.1786,-0.1759,-0.1705,-0.1689,-0.1684,-0.161,-0.1578,-0.1534,-0.153,-0.1513,-0.1504,-0.1506,-0.1489,-0.1488,-0.1487,-0.1481,-0.1479,-0.15,-0.1499,-0.1499,-0.1499,0,-0.1953,-0.192,-0.1905,-0.1854,-0.1828,-0.1799,-0.176,-0.1738,-0.1718,-0.169,-0.1651,-0.1612,-0.1568,-0.1556,-0.1536,-0.1509,-0.1508,-0.1497,-0.1489,-0.1488,-0.1482,-0.148,-0.1502,-0.1501,-0.1501,-0.15,0,0,-0.1967,-0.1898,-0.1893,-0.1869,-0.1817,-0.1791,-0.1762,-0.172,-0.1702,-0.1665,-0.1639,-0.159,-0.158,-0.1554,-0.153,-0.1513,-0.1504,-0.1504,-0.1502,-0.1505,-0.1472,-0.148,-0.1479,-0.1492,-0.1491,-0.1491,-0.1476,0,-0.1956,-0.1901,-0.187,-0.1828,-0.1797,-0.1767,-0.1741,-0.1706,-0.168,-0.165,-0.162,-0.1586,-0.1575,-0.1559,-0.1541,-0.1509,-0.1497,-0.151,-0.1466,-0.1465,-0.1478,-0.1475,-0.1484,-0.1472,-0.1473,-0.1473,-0.1472,0,-0.1935,-0.19,-0.1856,-0.1808,-0.1794,-0.1771,-0.173,-0.1702,-0.1662,-0.1644,-0.1615,-0.1591,-0.1558,-0.1554,-0.1508,-0.1517,-0.1498,-0.148,-0.1478,-0.1472,-0.1468,-0.1469,-0.1467,-0.1465,-0.1468,-0.1469,-0.1469,0,-0.195,-0.1892,-0.1858,-0.1838,-0.1781,-0.1766,-0.1742,-0.1702,-0.1679,-0.1643,-0.1628,-0.1589,-0.1567,-0.1537,-0.1504,-0.1504,-0.1461,-0.1454,-0.1445,-0.1446,-0.1436,-0.1437,-0.1431,-0.1425,-0.1425,-0.1425,-0.1425,0,-0.1941,-0.1915,-0.1863,-0.1842,-0.1812,-0.1776,-0.1747,-0.172,-0.1685,-0.1658,-0.1629,-0.1604,-0.1562,-0.1532,-0.1505,-0.1471,-0.1462,-0.1446,-0.1439,-0.1448,-0.145,-0.1434,-0.1434,-0.1424,-0.1425,-0.1425,-0.1425,0,-0.1952,-0.1917,-0.1877,-0.1827,-0.1814,-0.1793,-0.175,-0.1728,-0.1701,-0.1667,-0.1657,-0.1613,-0.1576,-0.154,-0.149,-0.1472,-0.1438,-0.1429,-0.1452,-0.1448,-0.1441,-0.1442,-0.1423,-0.1419,-0.1417,-0.1417,-0.1417,0,-0.1948,-0.1927,-0.1875,-0.1855,-0.1831,-0.1799,-0.1775,-0.1739,-0.1716,-0.1669,-0.1653,-0.1614,-0.1581,-0.1523,-0.1487,-0.1449,-0.1439,-0.1435,-0.1433,-0.1443,-0.1438,-0.144,-0.1437,-0.1436,-0.1436,-0.1436,-0.1436,0,-0.1944,-0.1928,-0.1896,-0.1857,-0.183,-0.1797,-0.1764,-0.1749,-0.1706,-0.1682,-0.1644,-0.1618,-0.1568,-0.153,-0.1487,-0.1462,-0.1442,-0.1437,-0.1433,-0.1442,-0.1456,-0.1448,-0.1454,-0.1438,-0.1438,-0.1437,-0.1437,-0.1437,-0.1947,-0.1928,-0.1888,-0.1852,-0.1823,-0.1793,-0.177,-0.174,-0.1708,-0.1664,-0.1644,-0.1606,-0.1567,-0.1509,-0.1483,-0.1453,-0.1448,-0.1442,-0.144,-0.1439,-0.1441,-0.1461,-0.1445,-0.1445,-0.1445,-0.1445,-0.1445,0,-0.1942,-0.1915,-0.1883,-0.1837,-0.181,-0.1794,-0.1756,-0.1734,-0.1701,-0.1666,-0.1634,-0.1591,-0.1554,-0.1515,-0.1476,-0.1459,-0.1449,-0.145,-0.145,-0.1445,-0.1448,-0.1455,-0.1459,-0.1459,-0.1459,-0.1459,-0.1459,-0.1459,-0.1936,-0.1902,-0.1881,-0.1832,-0.1804,-0.1767,-0.1747,-0.1719,-0.1691,-0.1644,-0.1613,-0.1588,-0.1552,-0.151,-0.1475,-0.1464,-0.1451,-0.1455,-0.1441,-0.1445,-0.1444,-0.1443,-0.145,-0.1452,-0.1452,-0.144,-0.144,-0.144]},{"header":{"parameterUnit":"m.s-1","parameterCategory":1,"la1":30.2991,"la2":30.254,"lo1":-89.0895,"lo2":-89.0444,"dy":0.0017,"dx":0.0017,"nx":28,"ny":28,"refTime":"2025-05-22T21:00:00:Z","depth":0,"parameterNumber":3,"parameterNumberName":"V-component_of_WINDS"},"data":[0,0,0,0,0,0,0,0,0,0,0,0,0,0,0,0,0,0,0,0,0,0,0,0,0,0,0,0,0,0,0,0,0,0,0,0,0,0,0,0,0,0,0,0,0,0,0,0,0,0,0,0,0,0,0,0,0,0,2.5099,2.5099,0,2.5086,2.5086,2.5086,2.511,2.5111,2.5112,2.5113,2.5096,2.5095,2.5093,0,0,0,0,0,0,0,0,0,0,0,0,0,2.5142,2.5141,2.5099,2.5099,2.5099,2.5086,2.5086,2.5086,2.511,2.5111,2.5112,2.5113,2.5096,2.5095,2.5093,0,0,0,0,0,0,0,0,0,0,0,0,0,2.5125,2.5141,2.5099,2.511,2.511,2.5086,2.5086,2.5085,2.511,2.5111,2.5112,2.5114,2.5097,2.5095,2.5093,2.5057,0,0,2.5087,2.5087,0,0,0,0,0,0,0,0,2.5126,2.5124,2.5108,2.5109,2.511,2.5101,2.5095,2.5076,2.511,2.511,2.5113,2.5114,2.5096,2.5095,2.5089,2.5056,2.5055,2.5087,2.5086,2.5085,2.5085,0,0,0,0,0,0,0,2.5127,2.5124,2.5094,2.5108,2.5109,2.5114,2.5113,2.5091,2.5096,2.511,2.5112,2.511,2.5097,2.5091,2.5089,2.5055,2.5087,2.5086,2.5085,2.5084,2.499,2.4988,0,0,0,0,0,0,2.5128,2.5125,2.5094,2.5093,2.5121,2.5112,2.5111,2.5102,2.5096,2.5097,2.5109,2.5111,2.5093,2.5091,2.5088,2.5044,2.5085,2.5084,2.5083,2.4991,2.4989,2.4988,0,0,0,0,0,0,2.5129,2.5125,2.5095,2.511,2.5106,2.511,2.51,2.5102,2.5096,2.5096,2.5096,2.5102,2.5094,2.5091,2.5064,2.5044,2.5083,2.5081,2.4993,2.4991,2.4989,2.4957,0,0,0,0,0,0,2.513,2.5125,2.5112,2.5109,2.5105,2.5072,2.5099,2.51,2.5093,2.5096,2.509,2.509,2.5095,2.5067,2.5063,2.5042,2.508,2.4995,2.4992,2.4989,2.4959,2.4954,2.4949,0,0,0,0,0,2.5131,2.5103,2.5111,2.5107,2.509,2.5071,2.5068,2.5076,2.5091,2.5077,2.5077,2.509,2.5048,2.5064,2.5059,2.5038,2.4996,2.4993,2.499,2.4962,2.4955,2.4949,0,0,0,0,0,0,2.5102,2.5103,2.5112,2.5083,2.5076,2.5075,2.5058,2.5068,2.5057,2.506,2.5069,2.5067,2.5038,2.5036,2.5054,2.5002,2.5024,2.502,2.5005,2.4998,2.4993,2.4993,2.5078,0,0,0,0,0,2.5093,2.5078,2.5079,2.5053,2.505,2.5054,2.5046,2.5053,2.5046,2.5044,2.5042,2.5034,2.5019,2.5008,2.4995,2.496,2.4958,2.4943,2.4937,2.4933,2.4929,2.4908,2.4901,2.4978,2.4978,2.4978,0,0,2.5072,2.5071,2.5061,2.5047,2.5043,2.5027,2.5052,2.5034,2.5021,2.5041,2.5015,2.5013,2.5005,2.4974,2.496,2.4971,2.4907,2.4929,2.4926,2.4924,2.4904,2.4897,2.4891,2.4975,2.4976,2.4976,0,0,2.5026,2.5025,2.5002,2.4998,2.4992,2.4995,2.4989,2.4986,2.4986,2.4961,2.4975,2.4959,2.4934,2.4927,2.492,2.4871,2.4881,2.4866,2.4838,2.4818,2.4812,2.4806,2.4787,2.478,2.4862,2.4862,2.4862,0,2.5001,2.4978,2.4989,2.4969,2.4962,2.498,2.4956,2.4951,2.4941,2.4935,2.4947,2.4915,2.4911,2.4877,2.4865,2.486,2.4852,2.4866,2.4812,2.4807,2.4802,2.4784,2.4777,2.486,2.4861,2.4861,2.4861,0,2.4947,2.4931,2.4913,2.4903,2.4894,2.4872,2.4878,2.4868,2.4875,2.4876,2.485,2.4846,2.483,2.4823,2.483,2.479,2.4797,2.4811,2.4833,2.4793,2.4775,2.4769,2.4858,2.4858,2.4859,2.4859,0,0,2.4882,2.4878,2.4871,2.4866,2.4861,2.4848,2.4827,2.4813,2.4803,2.4795,2.4776,2.4754,2.4766,2.4758,2.4764,2.4747,2.4706,2.4763,2.4763,2.4751,2.466,2.4649,2.4641,2.4714,2.4713,2.4712,2.4661,0,2.4835,2.48,2.4808,2.4772,2.4756,2.4773,2.4754,2.4748,2.4749,2.4734,2.4735,2.4718,2.4737,2.4732,2.4716,2.4715,2.4688,2.4719,2.4695,2.4694,2.4695,2.4632,2.462,2.4572,2.4654,2.4653,2.4652,0,2.4776,2.4766,2.4729,2.4725,2.4719,2.4702,2.4689,2.4676,2.4669,2.467,2.4662,2.4671,2.4648,2.4671,2.4639,2.466,2.4651,2.4649,2.4647,2.4644,2.4669,2.4625,2.4557,2.4549,2.4642,2.4643,2.4644,0,2.473,2.4707,2.4682,2.4678,2.4673,2.466,2.4658,2.4652,2.4643,2.4632,2.4626,2.4612,2.4603,2.4592,2.4596,2.4613,2.4563,2.4587,2.4562,2.4561,2.4549,2.4549,2.4476,2.4546,2.4546,2.4546,2.4546,0,2.4676,2.4652,2.4661,2.4645,2.4618,2.4628,2.4601,2.46,2.4595,2.4578,2.4592,2.4575,2.4583,2.4567,2.457,2.4542,2.4539,2.4538,2.4539,2.4536,2.4536,2.4529,2.4531,2.4544,2.4544,2.4545,2.4545,0,2.4619,2.4625,2.4598,2.4596,2.4595,2.4575,2.4573,2.4557,2.4559,2.4538,2.4533,2.4535,2.4517,2.4521,2.45,2.4503,2.4467,2.4473,2.4469,2.447,2.4444,2.4446,2.4362,2.4351,2.4429,2.4429,2.4428,0,2.4584,2.4566,2.4562,2.4552,2.4549,2.4533,2.4524,2.4532,2.4522,2.4512,2.4497,2.448,2.4467,2.4436,2.4435,2.4419,2.4424,2.4396,2.4421,2.4418,2.4421,2.4421,2.4419,2.439,2.4389,2.4388,2.4388,0,2.452,2.4523,2.451,2.4497,2.4486,2.4477,2.4468,2.4459,2.4467,2.4454,2.4436,2.4426,2.4405,2.4387,2.4372,2.4368,2.4378,2.438,2.4373,2.4369,2.4367,2.4366,2.4453,2.4381,2.4382,2.4383,2.4383,2.4383,2.4471,2.4456,2.445,2.4435,2.443,2.4421,2.4406,2.4407,2.4392,2.4376,2.4382,2.436,2.4353,2.4334,2.4328,2.431,2.432,2.4311,2.4308,2.4305,2.4301,2.4371,2.4308,2.4308,2.4308,2.4308,2.4308,0,2.4406,2.4404,2.439,2.4378,2.4365,2.4378,2.4369,2.4357,2.4338,2.4331,2.4317,2.4295,2.4278,2.4276,2.4259,2.4245,2.4249,2.424,2.424,2.4239,2.4294,2.4301,2.4237,2.4237,2.4237,2.4237,2.4237,2.4237,2.4371,2.4345,2.4347,2.4318,2.4316,2.4295,2.4289,2.4281,2.4275,2.425,2.4236,2.4235,2.4229,2.4212,2.4196,2.4195,2.4188,2.4176,2.4177,2.4228,2.4235,2.4242,2.4248,2.4175,2.4175,2.4124,2.4124,2.4123]}]]